Dewpoint
69 70 71 72 74 74 74 75 75 75 75 75 75 75 75 75 75 75 74 74 74 74 73 73 73 73 73 73 74 74 74 74 74 73 73 73 72 72 72 71 71 71 69 70 70 70 71 71 71 71 71 72 72 72 71 71 71 71 71 71 70 70 70 69 69 70 69 69 70 70 70 70 70 70 70 70 70 70 70 71 71 69 69 68 69
68 70 72 73 74 74 74 75 75 75 75 75 75 75 75 75 75 75 74 74 74 73 73 73 73 73 73 73 74 74 74 74 74 73 73 73 72 72 72 71 70 69 69 69 69 70 71 70 71 71 71 72 72 72 72 71 71 71 71 71 70 70 69 69 69 69 69 69 70 70 70 69 69 70 70 70 70 71 71 71 70 69 69 69 70
70 71 72 73 73 73 74 75 75 75 75 75 75 75 75 75 75 75 74 74 74 74 73 73 73 73 73 73 74 74 74 73 73 73 73 72 72 71 71 71 70 70 69 68 70 70 70 70 69 71 71 71 72 72 72 71 71 71 71 70 70 70 70 70 69 69 69 69 69 69 69 69 68 69 70 70 70 71 71 71 70 70 68 70 70
69 70 71 72 73 73 74 74 74 75 74 75 75 75 75 75 75 74 74 74 74 74 73 73 73 73 74 74 74 74 74 73 73 73 73 72 72 71 71 70 70 70 69 69 69 69 69 69 68 70 70 71 71 71 71 71 71 71 71 70 70 70 69 69 69 69 70 70 70 69 70 67 67 68 69 69 69 69 69 70 70 69 70 70 70
69 70 70 71 72 73 73 74 74 74 74 74 75 75 75 75 75 74 74 74 74 74 74 74 73 74 74 74 74 74 73 73 73 73 72 72 72 71 70 70 70 69 69 69 69 69 69 69 69 69 70 71 71 71 72 72 72 71 70 70 69 69 68 69 69 69 69 69 70 70 67 67 67 68 68 68 69 69 69 69 69 69 70 70 70
70 70 70 70 72 73 73 73 73 73 74 74 75 75 75 74 74 74 74 74 74 74 74 74 74 74 74 74 74 73 73 73 73 72 72 72 71 71 70 70 69 69 69 69 69 69 70 70 70 70 71 71 71 72 72 71 71 70 69 69 69 69 69 69 68 68 68 69 69 68 66 66 66 67 69 68 68 68 68 69 69 69 69 70 69
70 70 70 71 71 73 73 73 73 73 73 74 74 74 74 74 74 74 74 74 74 74 73 74 74 74 74 74 74 73 73 73 73 72 71 72 71 70 70 70 70 70 70 70 70 70 70 70 70 70 70 70 71 72 71 71 71 70 70 70 70 70 69 69 68 68 69 68 65 66 66 66 66 66 68 68 68 69 68 68 68 69 69 69 69
69 70 70 70 72 73 73 73 73 73 73 73 73 74 74 74 74 74 74 74 74 74 73 73 73 73 73 73 73 73 73 73 72 71 71 71 71 70 70 70 70 70 70 70 70 70 70 70 70 70 70 71 71 72 71 71 71 71 70 69 69 69 68 68 68 68 68 66 66 66 66 66 66 66 68 68 68 68 68 68 68 69 69 69 69
70 70 70 70 72 72 73 73 73 73 73 73 73 73 73 73 73 73 74 74 74 73 73 73 73 73 73 73 73 72 72 72 71 72 71 71 70 70 70 70 70 70 70 70 71 71 70 71 70 71 71 71 71 71 71 71 71 71 70 70 69 70 68 69 69 69 67 67 66 66 66 66 66 66 68 68 68 67 68 67 68 68 69 69 69
70 70 70 70 70 72 72 72 72 72 73 73 72 73 73 73 73 73 73 73 73 73 73 73 73 73 73 73 73 72 72 71 71 71 71 71 70 70 71 71 71 70 70 70 71 71 71 71 71 71 71 71 71 71 71 71 70 70 70 70 69 70 70 70 69 68 66 66 66 66 67 69 67 67 67 68 68 68 68 68 68 68 69 69 70
70 70 71 71 72 72 72 72 72 72 72 72 72 72 73 73 73 73 73 73 73 73 73 73 73 73 72 72 72 73 72 72 72 71 71 71 71 71 71 71 71 70 70 71 71 71 71 71 71 71 71 71 71 71 70 70 70 70 70 69 70 70 69 70 69 67 65 65 66 68 68 69 67 66 68 68 68 68 68 68 68 68 68 69 69
70 71 71 71 73 72 72 72 72 72 72 72 72 72 72 72 73 73 72 73 73 72 72 72 72 72 72 72 72 72 73 73 72 72 72 71 71 71 71 71 70 70 70 71 70 70 70 71 71 71 70 70 71 70 71 70 70 70 69 69 70 70 71 71 70 66 66 67 68 68 68 67 67 68 68 68 68 69 68 68 68 68 68 68 69
70 70 70 71 71 71 71 72 72 72 72 72 72 72 72 72 72 72 73 73 73 72 72 72 72 72 72 72 72 73 73 72 72 72 72 71 71 71 71 70 71 71 71 70 70 70 71 71 71 71 71 70 71 71 70 71 70 69 70 70 71 71 71 72 67 65 66 67 68 68 67 67 67 68 67 67 68 68 68 68 68 68 68 68 68
69 70 70 70 71 71 71 72 72 72 72 72 72 72 72 72 72 73 73 73 73 73 73 72 72 71 71 71 71 72 72 72 72 72 72 72 72 71 71 72 71 71 70 70 71 71 71 71 71 71 71 71 71 71 70 70 70 70 70 70 71 71 70 68 67 65 67 67 68 67 68 68 67 68 67 68 68 68 68 68 68 68 68 68 68
68 69 70 69 70 71 71 71 71 72 72 72 72 72 72 72 72 73 73 72 73 73 72 72 72 71 71 71 71 71 72 72 72 72 71 72 72 71 72 72 71 70 71 71 71 71 71 71 71 71 71 71 71 71 71 70 70 70 70 70 71 71 70 67 65 66 67 68 68 68 67 67 68 68 68 68 68 68 68 68 67 67 67 68 68
67 67 66 67 68 70 71 71 71 71 71 71 71 71 71 72 72 72 72 73 73 73 73 72 72 71 71 71 71 72 72 72 72 72 71 71 72 72 72 71 71 71 71 71 71 71 71 71 71 71 71 71 71 71 71 70 70 70 71 70 70 71 71 69 65 66 67 67 68 68 67 67 69 68 68 68 68 68 68 67 67 67 67 68 69
66 67 66 66 67 69 70 71 71 71 71 71 71 71 71 71 72 72 72 72 72 72 72 72 72 72 72 72 72 72 72 72 71 72 71 72 72 72 71 71 71 71 71 71 71 71 71 71 71 71 71 72 72 71 71 71 71 70 70 71 71 71 71 68 64 65 66 67 68 67 67 67 68 69 67 68 68 68 68 67 67 67 67 67 68
65 66 66 66 65 66 69 70 70 70 70 71 71 71 71 71 71 72 71 72 72 72 72 72 72 72 72 72 71 71 71 71 71 71 71 72 72 71 71 72 72 71 71 71 71 71 71 71 71 71 72 72 72 71 71 71 70 70 71 71 71 72 69 66 63 65 66 68 67 68 67 68 68 68 68 68 68 68 67 67 67 67 67 67 67
64 65 65 65 65 66 68 69 70 69 69 69 69 70 71 71 71 71 72 72 71 71 71 72 72 72 72 71 72 72 71 71 71 71 71 71 71 72 72 72 72 71 71 71 71 72 72 71 71 72 72 72 71 71 71 71 71 70 71 71 71 70 68 66 65 66 67 67 67 67 66 68 68 68 66 68 68 68 68 67 67 67 67 68 68
65 65 65 65 65 65 68 69 69 69 70 69 69 69 71 70 70 70 71 71 71 71 71 72 72 72 72 72 71 72 72 71 71 71 72 72 71 71 72 72 72 72 71 71 71 72 72 72 72 72 72 72 71 71 71 71 71 71 71 71 69 67 64 65 65 65 66 67 67 67 68 68 68 68 67 67 68 68 67 68 67 67 67 67 68
66 66 65 65 65 67 68 68 69 69 69 70 68 68 70 68 69 70 70 70 71 71 72 72 72 71 71 71 71 71 70 70 70 70 72 72 71 71 71 72 71 71 72 72 71 72 72 72 71 72 72 72 71 71 71 71 71 71 71 70 70 64 64 65 65 67 67 68 68 67 69 68 68 67 67 68 68 67 67 67 67 67 68 67 67
63 63 64 65 65 65 66 67 67 68 69 69 69 69 69 69 67 68 69 70 71 71 71 70 71 70 71 71 71 71 70 70 69 71 70 71 71 71 70 71 71 72 72 72 72 72 72 72 72 72 72 72 72 68 69 71 71 71 70 70 67 65 64 65 66 66 67 66 68 68 68 68 67 67 68 68 67 67 67 67 66 67 67 68 67
61 62 62 62 62 62 64 65 65 67 68 69 69 68 68 68 68 68 69 69 70 70 70 71 69 70 70 71 71 70 69 69 70 71 71 72 71 71 70 71 71 71 72 72 72 72 72 72 71 72 72 72 68 67 67 67 67 70 70 68 66 63 63 65 66 66 66 67 66 68 68 68 67 67 67 67 67 67 67 67 67 66 67 68 68
62 62 61 60 58 57 59 61 63 64 64 64 67 68 68 68 67 68 68 67 67 70 69 69 69 69 69 69 70 70 70 69 72 71 71 71 71 71 71 70 70 71 71 72 72 72 72 72 72 72 72 71 67 68 68 68 68 67 67 66 63 62 63 64 65 66 66 67 66 68 68 67 67 67 67 67 67 66 66 67 66 67 67 68 68
59 58 60 59 56 56 57 58 59 59 61 62 65 66 66 67 67 68 68 68 67 67 68 68 69 69 69 69 70 70 69 69 69 69 69 70 69 69 69 68 69 69 71 69 69 71 71 70 70 71 69 69 68 67 68 67 67 68 68 66 63 61 63 65 65 66 66 66 67 68 68 67 67 67 67 67 66 66 66 66 67 68 68 68 68
57 54 55 58 56 55 56 57 58 58 58 60 63 66 66 66 67 68 68 68 68 67 67 66 68 68 69 69 70 67 68 68 68 67 69 70 69 69 69 69 68 68 71 69 69 69 69 70 71 70 69 69 68 68 68 69 68 68 68 66 61 61 62 64 65 66 66 66 67 68 68 67 67 67 67 66 66 66 66 66 66 68 68 68 68
54 54 55 57 57 56 56 57 57 57 57 59 61 61 63 66 66 67 67 67 67 67 66 66 66 66 67 68 68 68 68 67 67 67 69 70 69 69 69 69 69 68 69 68 68 68 69 69 69 69 69 69 69 68 67 68 68 68 67 66 61 60 63 65 66 66 65 66 67 68 68 67 67 68 67 66 66 66 66 66 67 68 68 68 68
54 55 55 56 58 56 56 56 57 58 57 58 58 58 61 64 66 68 68 68 67 67 67 67 67 66 67 66 70 67 67 67 67 67 68 69 69 69 69 68 69 69 69 68 67 67 68 68 68 69 70 69 69 68 68 68 68 68 67 68 62 62 63 65 65 65 65 65 66 67 67 67 67 68 67 67 66 66 66 67 66 67 67 68 69
53 54 54 55 57 58 56 55 56 57 57 58 57 57 59 61 61 65 65 71 66 66 66 66 66 66 66 67 69 67 66 65 65 66 67 68 68 68 68 69 69 69 68 68 67 66 68 67 67 68 68 68 69 68 68 68 68 67 67 66 62 61 63 64 65 65 65 65 65 66 67 67 67 67 66 66 66 66 66 66 66 67 67 68 68
53 53 53 53 56 57 56 55 54 57 57 58 58 56 58 58 59 61 65 68 65 66 66 66 66 67 66 66 66 68 65 65 65 66 66 67 67 67 68 68 69 68 67 67 66 66 66 67 66 65 66 66 67 67 67 68 67 67 68 66 63 61 63 64 64 65 65 65 65 67 67 67 67 68 68 67 67 66 66 66 66 67 68 68 67
53 52 52 52 55 54 56 56 53 57 57 57 58 56 57 57 59 60 63 66 66 68 66 66 66 67 66 66 67 68 67 66 65 66 66 66 65 65 67 67 67 67 67 67 66 65 65 65 65 66 66 66 66 67 67 67 67 67 68 67 66 62 62 63 63 64 65 65 65 65 66 67 67 67 69 68 67 67 66 66 66 67 67 66 67
52 52 54 54 53 53 54 56 54 54 56 57 58 56 56 56 59 59 60 65 67 65 66 66 68 66 67 66 65 66 69 67 66 65 64 65 65 66 66 66 66 67 66 66 66 66 67 68 68 66 67 67 66 67 67 66 66 65 67 66 66 65 61 62 63 64 65 65 65 65 65 66 67 67 68 68 68 67 67 66 66 66 67 67 66
52 53 54 55 54 53 54 54 56 52 55 56 55 55 56 56 56 59 61 65 66 65 65 65 66 66 65 65 66 67 67 66 66 66 67 65 65 65 65 66 66 66 66 66 67 67 67 66 67 66 66 66 67 66 67 67 66 66 67 67 66 66 62 61 63 65 65 65 64 65 65 66 66 67 67 68 68 67 66 66 66 66 66 66 66
52 52 53 54 56 55 54 54 59 51 56 55 54 53 55 55 56 58 61 62 64 65 66 65 66 67 66 66 66 66 67 66 68 66 67 66 65 65 65 65 66 66 66 66 66 66 65 65 67 67 68 66 66 66 66 65 66 66 66 67 67 66 65 62 63 64 65 65 65 64 64 64 65 65 66 68 68 68 67 67 67 67 67 67 66
52 51 52 52 54 55 55 52 56 53 53 54 52 53 54 54 53 56 57 60 62 62 64 65 64 65 65 65 66 66 67 67 67 66 66 65 65 64 65 65 66 66 66 66 66 65 65 65 66 65 66 66 66 66 65 65 66 66 66 66 67 66 65 62 63 64 64 65 65 64 64 64 64 64 65 65 69 68 68 68 66 67 67 67 67
51 51 52 53 52 53 55 50 51 54 53 55 52 52 53 53 54 57 55 59 60 61 63 64 65 65 65 65 65 66 67 67 67 66 67 66 65 65 65 65 65 66 66 66 65 66 66 65 66 65 64 65 65 65 65 65 66 65 66 66 66 67 66 63 62 63 64 65 65 64 64 63 63 64 66 64 65 67 68 68 68 67 67 67 67
52 51 51 51 52 52 53 51 50 53 53 53 53 52 53 53 53 54 55 58 58 60 62 64 64 64 64 65 65 65 66 67 67 67 66 65 66 65 65 65 65 65 65 66 66 66 65 65 65 66 64 64 65 65 65 65 65 66 65 66 67 67 66 65 63 63 64 64 64 64 64 63 64 68 64 63 63 64 67 69 68 68 67 67 67
54 53 52 51 52 53 53 53 51 53 52 53 53 52 53 53 53 53 58 56 57 60 63 63 63 64 64 64 65 65 67 66 66 67 66 65 65 66 65 65 66 64 64 65 65 66 65 65 65 65 65 64 65 65 64 65 65 65 65 65 66 67 66 66 65 66 64 64 64 64 64 64 64 64 63 63 63 63 64 67 68 68 68 67 67
52 53 52 50 51 52 53 51 51 52 52 52 53 51 52 53 53 53 54 54 55 59 63 63 63 62 63 64 65 66 66 66 66 67 66 66 66 66 66 65 66 65 64 64 64 65 64 64 64 65 66 65 65 64 64 64 64 64 64 65 67 66 66 66 66 65 65 64 64 64 64 64 64 64 63 63 63 63 63 63 64 65 66 67 68
50 53 53 49 51 51 51 50 50 52 52 51 52 50 51 52 52 52 52 53 54 59 61 63 62 61 63 63 64 64 65 65 65 65 65 66 66 66 66 66 65 64 63 63 63 64 64 64 65 65 65 65 65 65 64 64 64 64 64 63 65 66 66 66 65 65 65 65 65 64 64 64 64 64 63 63 63 63 63 62 64 64 64 67 68
50 50 49 48 50 51 50 49 50 52 53 51 51 50 50 51 52 52 52 52 54 59 58 62 61 61 61 62 63 64 64 64 65 65 65 66 66 66 65 64 65 64 64 63 63 64 64 64 65 65 65 63 63 64 64 64 62 61 62 63 64 66 67 66 65 65 65 65 66 65 64 64 63 63 63 63 63 63 63 62 62 62 63 64 67
49 50 48 48 50 51 50 50 50 51 52 52 51 51 51 51 51 51 52 52 53 56 57 59 61 61 61 61 62 63 64 64 65 65 65 65 65 66 64 63 64 65 64 64 63 67 65 65 65 64 65 64 63 64 64 63 60 59 60 60 62 63 66 65 65 65 65 65 65 66 66 64 63 63 63 63 63 63 63 62 62 61 62 64 64
48 49 50 50 50 50 49 50 50 51 51 54 52 51 51 52 51 52 52 53 55 56 58 58 62 60 59 60 61 62 63 63 63 65 65 65 65 66 64 64 65 65 64 63 64 64 64 64 64 64 64 65 64 64 64 63 61 61 61 61 60 60 62 63 64 65 65 65 65 65 66 65 64 64 63 63 63 63 63 62 62 61 61 62 63
49 46 48 50 51 52 49 49 50 51 51 53 55 52 53 53 52 52 53 54 54 58 57 57 60 58 59 59 60 61 62 63 63 63 65 65 66 66 65 65 65 65 64 63 63 63 63 64 64 64 64 63 63 63 64 64 62 61 58 59 60 60 58 59 62 63 64 63 64 65 65 65 65 65 64 63 63 63 62 62 62 61 61 62 62
48 47 48 50 51 49 49 49 50 50 50 53 51 52 53 51 51 51 52 52 52 53 53 54 57 58 58 58 58 60 61 62 62 63 64 65 65 65 65 65 65 64 64 63 63 63 63 64 64 64 63 63 62 62 63 64 64 64 61 59 58 56 57 60 60 60 63 64 64 64 64 64 65 66 65 64 63 63 63 62 62 61 61 61 61
48 49 48 50 49 49 50 50 50 50 50 50 51 53 51 50 50 50 50 50 50 51 51 52 55 56 56 58 58 60 61 62 62 63 64 65 65 65 64 64 65 64 64 63 63 63 63 64 64 63 63 64 63 62 62 64 65 65 64 63 60 57 57 59 59 57 62 63 63 64 63 64 64 65 65 65 64 64 64 63 63 61 61 61 61
47 50 49 49 49 49 50 50 50 50 51 50 50 53 50 51 50 50 50 49 50 51 52 54 56 57 57 56 57 59 60 62 62 63 64 65 65 66 65 64 64 65 66 64 63 63 64 64 65 64 64 64 63 62 61 62 63 64 65 65 64 65 62 61 59 57 58 60 63 63 63 63 64 64 65 65 65 65 65 65 64 61 60 60 60
47 49 48 48 48 49 49 49 51 51 50 51 50 51 51 51 50 50 52 50 50 51 52 54 56 58 56 55 56 59 60 62 63 63 64 64 66 65 66 65 64 64 65 64 63 64 65 65 65 64 64 64 63 63 62 63 62 62 64 64 63 65 63 61 60 59 58 58 59 61 62 63 63 64 64 65 65 65 65 65 65 62 61 60 60
47 47 47 47 49 50 51 50 49 50 49 51 51 50 53 52 50 50 50 51 52 53 53 54 54 55 54 54 56 59 60 62 63 64 64 64 65 65 65 65 64 64 65 64 64 64 65 64 64 64 63 64 63 63 63 63 63 63 63 62 63 62 62 62 61 59 56 55 55 59 60 63 64 63 64 65 65 66 66 66 65 63 62 61 60
49 51 47 47 48 50 51 49 48 49 49 49 49 49 50 52 49 50 50 50 51 51 52 52 53 53 52 53 55 58 60 61 62 64 64 65 65 65 65 64 65 64 66 64 63 63 64 64 64 64 64 63 64 64 64 64 64 64 63 62 62 61 60 60 60 59 59 56 56 58 59 61 61 62 64 64 64 65 65 66 65 64 63 62 61
49 48 46 46 47 47 47 47 48 49 49 49 49 49 49 50 50 50 50 50 51 51 51 51 52 52 52 52 53 56 59 61 61 63 63 63 64 64 64 64 64 65 65 64 63 63 63 64 64 64 64 63 64 64 64 64 64 64 63 63 62 63 61 60 60 59 57 56 55 57 58 61 61 59 62 64 64 64 65 66 65 65 64 63 63